User: anonymous   Login
Location: Charleston
(38.3500°N, 81.6330°W)
Time: 03:53:06
(UTC-04:00)
Language:

Cosmos 1812 Rocket - Orbit

View from above orbital plane
View from above orbital plane
View from above satellite
View from above satellite

Ground track
Ground track

The orbit data is extracted from the following two-line orbital elements,

1 17296U 87003B   15183.46509863  .00000147  00000-0  15043-4 0  9991
2 17296 082.5299 334.0779 0020568 062.4022 297.9278 14.82987758537033
Epoch (UTC): 02 July 2015 11:09:44
Eccentricity: 0.0020568
inclination: 82.5299°
perigee height: 605 km
apogee height: 634 km
right ascension of ascending node: 334.0779°
argument of perigee: 62.4022°
revolutions per day: 14.82987758
mean anomaly at epoch: 297.9278°
orbit number at epoch: 53703

The dashed part of the orbit path shows where the satellite is in the earth's shadow,  

DLR